FFT4593 KLAX-KSFO

Flight info

Callsign FFT4593
Flight time 0h 55m
Altitude 32000
Route SUMMR2 STOKD SERFR SERFR4
Aircraft A320/M-SDE3FGHIRWY/LB1

Departure

Time 2026-05-08 00:27
Airport Los Angeles International Airport (KLAX)

Arrival

Time 2026-05-08 01:23
Airport San Francisco International Airport (KSFO)
Time Latitude Longitude Altitude Speed Heading
2026-05-07 23:52 33.94321 -118.41429 93 ft 0 kts 281°
2026-05-08 00:12 33.94318 -118.41415 94 ft 2 kts 281°
2026-05-08 00:13 33.94315 -118.41395 92 ft 2 kts 281°
2026-05-08 00:13 33.94312 -118.41375 93 ft 2 kts 281°
2026-05-08 00:13 33.94309 -118.41355 93 ft 2 kts 288°
2026-05-08 00:13 33.94304 -118.41339 92 ft 2 kts 314°
2026-05-08 00:14 33.94292 -118.41325 92 ft 2 kts 354°
2026-05-08 00:14 33.94289 -118.41324 92 ft 0 kts 353°
2026-05-08 00:16 33.94305 -118.41327 93 ft 4 kts 354°
2026-05-08 00:16 33.94332 -118.41330 94 ft 4 kts 354°
2026-05-08 00:16 33.94354 -118.41333 93 ft 4 kts 353°
2026-05-08 00:16 33.94410 -118.41342 93 ft 9 kts 353°
2026-05-08 00:17 33.94465 -118.41350 93 ft 7 kts 353°
2026-05-08 00:17 33.94513 -118.41357 95 ft 7 kts 353°
2026-05-08 00:17 33.94581 -118.41367 93 ft 14 kts 353°
2026-05-08 00:17 33.94655 -118.41378 95 ft 11 kts 353°
2026-05-08 00:18 33.94727 -118.41389 95 ft 10 kts 352°
2026-05-08 00:18 33.94778 -118.41367 94 ft 9 kts 53°
2026-05-08 00:18 33.94797 -118.41240 94 ft 13 kts 83°
2026-05-08 00:18 33.94807 -118.41137 96 ft 12 kts 82°
2026-05-08 00:19 33.94821 -118.41001 95 ft 17 kts 84°
2026-05-08 00:19 33.94835 -118.40867 94 ft 15 kts 82°
2026-05-08 00:19 33.94847 -118.40747 96 ft 13 kts 83°
2026-05-08 00:19 33.94858 -118.40642 94 ft 12 kts 82°
2026-05-08 00:20 33.94869 -118.40543 94 ft 12 kts 83°
2026-05-08 00:20 33.94879 -118.40446 94 ft 11 kts 83°
2026-05-08 00:20 33.94888 -118.40351 94 ft 11 kts 83°
2026-05-08 00:20 33.94897 -118.40265 94 ft 10 kts 82°
2026-05-08 00:21 33.94906 -118.40182 95 ft 10 kts 83°
2026-05-08 00:21 33.94913 -118.40106 94 ft 9 kts 83°
2026-05-08 00:21 33.94920 -118.40034 93 ft 8 kts 83°
2026-05-08 00:21 33.94925 -118.39990 93 ft 0 kts 82°
2026-05-08 00:24 33.94927 -118.39975 93 ft 7 kts 82°
2026-05-08 00:24 33.94948 -118.39926 95 ft 3 kts 42°
2026-05-08 00:24 33.94949 -118.39925 95 ft 0 kts 41°
2026-05-08 00:26 33.94958 -118.39918 93 ft 8 kts 33°
2026-05-08 00:26 33.95033 -118.39935 93 ft 9 kts 306°
2026-05-08 00:26 33.95039 -118.39982 93 ft 0 kts 265°
2026-05-08 00:26 33.95038 -118.39989 93 ft 5 kts 263°
2026-05-08 00:27 33.95019 -118.40173 100 ft 54 kts 262°
2026-05-08 00:27 33.94947 -118.40886 98 ft 115 kts 263°
2026-05-08 00:27 33.94826 -118.42048 128 ft 159 kts 262°
2026-05-08 00:27 33.94690 -118.43330 839 ft 152 kts 261°
2026-05-08 00:28 33.94558 -118.44586 1501 ft 152 kts 263°
2026-05-08 00:28 33.94437 -118.45860 2008 ft 160 kts 264°
2026-05-08 00:28 33.94329 -118.47286 2183 ft 182 kts 267°
2026-05-08 00:28 33.94270 -118.48898 2330 ft 202 kts 268°
2026-05-08 00:29 33.94220 -118.50682 2465 ft 225 kts 268°
2026-05-08 00:29 33.94114 -118.52650 2611 ft 246 kts 265°
2026-05-08 00:29 33.93957 -118.54748 3187 ft 254 kts 265°
2026-05-08 00:29 33.93781 -118.56883 4026 ft 257 kts 265°
2026-05-08 00:30 33.93602 -118.59021 4695 ft 263 kts 265°
2026-05-08 00:30 33.93421 -118.61200 4921 ft 261 kts 265°
2026-05-08 00:30 33.93244 -118.63376 4995 ft 261 kts 265°
2026-05-08 00:30 33.93073 -118.65541 5005 ft 260 kts 266°
2026-05-08 00:31 33.92907 -118.67716 5009 ft 260 kts 266°
2026-05-08 00:31 33.92740 -118.69886 5007 ft 260 kts 266°
2026-05-08 00:31 33.92573 -118.72056 5006 ft 260 kts 265°
2026-05-08 00:31 33.92405 -118.74222 5006 ft 260 kts 265°
2026-05-08 00:32 33.92234 -118.76390 5005 ft 261 kts 265°
2026-05-08 00:32 33.92063 -118.78559 5005 ft 260 kts 265°
2026-05-08 00:32 33.91893 -118.80728 5004 ft 260 kts 265°
2026-05-08 00:32 33.91729 -118.82902 5004 ft 260 kts 268°
2026-05-08 00:33 33.91749 -118.85078 5003 ft 260 kts 273°
2026-05-08 00:33 33.91817 -118.87252 5003 ft 260 kts 272°
2026-05-08 00:33 33.91884 -118.89447 5342 ft 265 kts 272°
2026-05-08 00:33 33.91948 -118.91666 6217 ft 267 kts 273°
2026-05-08 00:34 33.92013 -118.93919 6997 ft 271 kts 273°
2026-05-08 00:34 33.92079 -118.96207 7758 ft 276 kts 273°
2026-05-08 00:34 33.92149 -118.98544 8508 ft 282 kts 274°
2026-05-08 00:34 33.92402 -119.00894 9265 ft 286 kts 285°
2026-05-08 00:35 33.93064 -119.03156 10024 ft 289 kts 297°
2026-05-08 00:35 33.94093 -119.05283 10509 ft 304 kts 303°
2026-05-08 00:35 33.95257 -119.07519 10783 ft 326 kts 303°
2026-05-08 00:35 33.96480 -119.09871 11314 ft 336 kts 303°
2026-05-08 00:36 33.97727 -119.12280 11982 ft 342 kts 303°
2026-05-08 00:36 33.98990 -119.14728 12662 ft 347 kts 303°
2026-05-08 00:36 34.00303 -119.17191 13324 ft 351 kts 308°
2026-05-08 00:36 34.01951 -119.19379 13962 ft 355 kts 320°
2026-05-08 00:37 34.03931 -119.21175 14526 ft 357 kts 326°
2026-05-08 00:37 34.05970 -119.22909 15147 ft 360 kts 327°
2026-05-08 00:37 34.08018 -119.24664 15780 ft 363 kts 326°
2026-05-08 00:38 34.12158 -119.28225 17031 ft 368 kts 326°
2026-05-08 00:38 34.14250 -119.30024 17664 ft 371 kts 325°
2026-05-08 00:38 34.16356 -119.31840 18280 ft 373 kts 325°
2026-05-08 00:38 34.18477 -119.33669 18827 ft 376 kts 326°
2026-05-08 00:39 34.20616 -119.35515 19345 ft 379 kts 325°
2026-05-08 00:39 34.22766 -119.37371 19893 ft 381 kts 326°
2026-05-08 00:39 34.24931 -119.39238 20411 ft 384 kts 326°
2026-05-08 00:39 34.27113 -119.41122 20914 ft 387 kts 326°
2026-05-08 00:40 34.29307 -119.43018 21424 ft 389 kts 325°
2026-05-08 00:40 34.31518 -119.44929 21899 ft 392 kts 326°
2026-05-08 00:40 34.33746 -119.46857 22384 ft 395 kts 326°
2026-05-08 00:40 34.35991 -119.48801 22870 ft 398 kts 325°
2026-05-08 00:41 34.37485 -119.50093 23173 ft 400 kts 326°
2026-05-08 00:41 34.39755 -119.52060 23630 ft 403 kts 326°
2026-05-08 00:41 34.41924 -119.54217 24020 ft 406 kts 316°
2026-05-08 00:41 34.43918 -119.56661 24381 ft 409 kts 316°
2026-05-08 00:42 34.45925 -119.59133 24779 ft 412 kts 316°
2026-05-08 00:42 34.47936 -119.61618 25144 ft 414 kts 316°
2026-05-08 00:42 34.49958 -119.64115 25526 ft 417 kts 316°
2026-05-08 00:42 34.51995 -119.66628 25902 ft 419 kts 316°
2026-05-08 00:43 34.54045 -119.69151 26274 ft 421 kts 315°
2026-05-08 00:43 34.56105 -119.71687 26623 ft 423 kts 315°
2026-05-08 00:43 34.58176 -119.74242 26979 ft 425 kts 315°
2026-05-08 00:43 34.60255 -119.76809 27338 ft 428 kts 316°
2026-05-08 00:44 34.62346 -119.79389 27693 ft 430 kts 316°
2026-05-08 00:44 34.64452 -119.81988 28043 ft 432 kts 316°
2026-05-08 00:44 34.66539 -119.84564 28356 ft 435 kts 315°
2026-05-08 00:44 34.68666 -119.87195 28684 ft 437 kts 316°
2026-05-08 00:45 34.70799 -119.89840 29011 ft 440 kts 316°
2026-05-08 00:45 34.72943 -119.92506 29339 ft 442 kts 315°
2026-05-08 00:45 34.75093 -119.95183 29681 ft 444 kts 315°
2026-05-08 00:45 34.77255 -119.97874 30014 ft 446 kts 316°
2026-05-08 00:46 34.79425 -120.00575 30305 ft 448 kts 315°
2026-05-08 00:46 34.81609 -120.03291 30556 ft 450 kts 315°
2026-05-08 00:46 34.83798 -120.06018 30818 ft 451 kts 316°
2026-05-08 00:46 34.85996 -120.08760 31061 ft 453 kts 315°
2026-05-08 00:47 34.88201 -120.11513 31297 ft 455 kts 315°
2026-05-08 00:47 34.90400 -120.14260 31727 ft 452 kts 315°
2026-05-08 00:47 34.92593 -120.17002 31990 ft 452 kts 315°
2026-05-08 00:48 34.96889 -120.22377 32063 ft 431 kts 315°
2026-05-08 00:48 35.01034 -120.27572 32064 ft 425 kts 315°
2026-05-08 00:49 35.05149 -120.32742 32069 ft 424 kts 315°
2026-05-08 00:49 35.09273 -120.37909 32065 ft 425 kts 316°
2026-05-08 00:50 35.13562 -120.42848 32063 ft 420 kts 319°
2026-05-08 00:50 35.17916 -120.47583 32051 ft 418 kts 319°
2026-05-08 00:51 35.22239 -120.52342 32049 ft 418 kts 318°
2026-05-08 00:51 35.26500 -120.57129 32037 ft 419 kts 317°
2026-05-08 00:52 35.30783 -120.61963 32041 ft 420 kts 317°
2026-05-08 00:52 35.35085 -120.66815 32039 ft 421 kts 318°
2026-05-08 00:53 35.39397 -120.71682 32043 ft 421 kts 317°
2026-05-08 00:53 35.43703 -120.76555 32040 ft 422 kts 317°
2026-05-08 00:54 35.48029 -120.81439 32035 ft 423 kts 319°
2026-05-08 00:54 35.52689 -120.85837 32039 ft 423 kts 323°
2026-05-08 00:55 35.57392 -120.90197 32047 ft 424 kts 323°
2026-05-08 00:55 35.62103 -120.94580 32034 ft 424 kts 323°
2026-05-08 00:56 35.66803 -120.98956 32051 ft 423 kts 323°
2026-05-08 00:56 35.71466 -121.03291 32047 ft 422 kts 323°
2026-05-08 00:57 35.76141 -121.07657 32058 ft 421 kts 323°
2026-05-08 00:57 35.80810 -121.12031 32041 ft 421 kts 322°
2026-05-08 00:58 35.85481 -121.16406 32038 ft 421 kts 323°
2026-05-08 00:58 35.90151 -121.20768 32046 ft 421 kts 323°
2026-05-08 00:59 35.94824 -121.25142 32034 ft 421 kts 322°
2026-05-08 00:59 35.99476 -121.29525 32047 ft 420 kts 322°
2026-05-08 01:00 36.04116 -121.33900 31950 ft 417 kts 322°
2026-05-08 01:00 36.06397 -121.36049 31700 ft 408 kts 323°
2026-05-08 01:00 36.08751 -121.37963 31455 ft 403 kts 328°
2026-05-08 01:00 36.11124 -121.39805 31209 ft 401 kts 328°
2026-05-08 01:01 36.13484 -121.41639 30974 ft 400 kts 327°
2026-05-08 01:01 36.15838 -121.43479 30733 ft 399 kts 327°
2026-05-08 01:01 36.18169 -121.45303 30378 ft 395 kts 327°
2026-05-08 01:01 36.20457 -121.47093 29891 ft 393 kts 328°
2026-05-08 01:02 36.22754 -121.48888 29453 ft 388 kts 328°
2026-05-08 01:02 36.25026 -121.50665 29016 ft 384 kts 328°
2026-05-08 01:02 36.27274 -121.52422 28604 ft 380 kts 328°
2026-05-08 01:02 36.29497 -121.54160 28185 ft 376 kts 328°
2026-05-08 01:03 36.31697 -121.55883 27766 ft 372 kts 327°
2026-05-08 01:03 36.33875 -121.57592 27343 ft 369 kts 327°
2026-05-08 01:03 36.36033 -121.59286 26920 ft 366 kts 327°
2026-05-08 01:03 36.38178 -121.60971 26483 ft 364 kts 327°
2026-05-08 01:04 36.40308 -121.62643 26048 ft 362 kts 327°
2026-05-08 01:04 36.42431 -121.64307 25611 ft 360 kts 327°
2026-05-08 01:04 36.44548 -121.65968 25164 ft 359 kts 327°
2026-05-08 01:04 36.46660 -121.67631 24699 ft 359 kts 327°
2026-05-08 01:05 36.48766 -121.69294 24234 ft 359 kts 327°
2026-05-08 01:05 36.50869 -121.70957 23779 ft 359 kts 327°
2026-05-08 01:05 36.52978 -121.72624 23258 ft 359 kts 327°
2026-05-08 01:05 36.55080 -121.74291 22764 ft 357 kts 327°
2026-05-08 01:06 36.57171 -121.75948 22348 ft 356 kts 327°
2026-05-08 01:06 36.59254 -121.77597 21893 ft 354 kts 327°
2026-05-08 01:06 36.61327 -121.79239 21445 ft 353 kts 327°
2026-05-08 01:06 36.63393 -121.80876 20997 ft 352 kts 327°
2026-05-08 01:07 36.65458 -121.82513 20540 ft 351 kts 327°
2026-05-08 01:07 36.67513 -121.84139 20112 ft 350 kts 327°
2026-05-08 01:07 36.69562 -121.85761 19657 ft 349 kts 327°
2026-05-08 01:07 36.71609 -121.87388 19221 ft 348 kts 327°
2026-05-08 01:08 36.73703 -121.88898 18773 ft 347 kts 335°
2026-05-08 01:08 36.75971 -121.89928 18281 ft 348 kts 346°
2026-05-08 01:08 36.78340 -121.90590 17732 ft 349 kts 347°
2026-05-08 01:08 36.80703 -121.91236 17364 ft 345 kts 347°
2026-05-08 01:09 36.83006 -121.91875 17176 ft 333 kts 347°
2026-05-08 01:09 36.85248 -121.92506 16568 ft 327 kts 347°
2026-05-08 01:09 36.87429 -121.93123 15987 ft 323 kts 347°
2026-05-08 01:09 36.89592 -121.93732 15569 ft 313 kts 347°
2026-05-08 01:10 36.91682 -121.94320 15200 ft 303 kts 347°
2026-05-08 01:10 36.93710 -121.94889 14850 ft 296 kts 347°
2026-05-08 01:10 36.95725 -121.95474 14499 ft 298 kts 344°
2026-05-08 01:10 36.97720 -121.96177 14149 ft 299 kts 342°
2026-05-08 01:11 36.99712 -121.96955 13776 ft 300 kts 341°
2026-05-08 01:11 37.01703 -121.97762 13396 ft 301 kts 341°
2026-05-08 01:11 37.03696 -121.98573 13031 ft 301 kts 341°
2026-05-08 01:11 37.05689 -121.99377 12662 ft 301 kts 340°
2026-05-08 01:12 37.07688 -122.00177 12288 ft 301 kts 341°
2026-05-08 01:12 37.09689 -122.00967 11917 ft 301 kts 341°
2026-05-08 01:12 37.11670 -122.01743 11532 ft 302 kts 341°
2026-05-08 01:12 37.13680 -122.02527 11147 ft 303 kts 341°
2026-05-08 01:13 37.15692 -122.03312 10756 ft 303 kts 341°
2026-05-08 01:13 37.17710 -122.04099 10356 ft 304 kts 340°
2026-05-08 01:13 37.19733 -122.04890 9950 ft 305 kts 340°
2026-05-08 01:13 37.21736 -122.05675 9756 ft 296 kts 340°
2026-05-08 01:14 37.23674 -122.06433 9542 ft 288 kts 340°
2026-05-08 01:14 37.25582 -122.07179 9223 ft 285 kts 340°
2026-05-08 01:14 37.27471 -122.07920 8869 ft 284 kts 340°
2026-05-08 01:14 37.29348 -122.08659 8539 ft 282 kts 339°
2026-05-08 01:15 37.31203 -122.09392 8036 ft 278 kts 339°
2026-05-08 01:15 37.33043 -122.10117 7363 ft 278 kts 340°
2026-05-08 01:15 37.34896 -122.10849 6697 ft 282 kts 340°
2026-05-08 01:15 37.36780 -122.11594 6181 ft 285 kts 340°
2026-05-08 01:16 37.38680 -122.12324 5760 ft 284 kts 341°
2026-05-08 01:16 37.40565 -122.12986 5437 ft 279 kts 342°
2026-05-08 01:16 37.42431 -122.13612 5101 ft 275 kts 342°
2026-05-08 01:16 37.44237 -122.14213 4765 ft 261 kts 343°
2026-05-08 01:17 37.45946 -122.14784 4460 ft 247 kts 342°
2026-05-08 01:17 37.47572 -122.15333 4157 ft 237 kts 343°
2026-05-08 01:17 37.49111 -122.15856 3973 ft 221 kts 342°
2026-05-08 01:17 37.50580 -122.16359 3632 ft 216 kts 343°
2026-05-08 01:18 37.52006 -122.16858 3330 ft 210 kts 339°
2026-05-08 01:18 37.53233 -122.17716 3070 ft 194 kts 317°
2026-05-08 01:18 37.54057 -122.18949 2843 ft 177 kts 300°
2026-05-08 01:18 37.54629 -122.20294 2623 ft 172 kts 297°
2026-05-08 01:19 37.55182 -122.21606 2416 ft 166 kts 298°
2026-05-08 01:19 37.55701 -122.22836 2215 ft 157 kts 297°
2026-05-08 01:19 37.56198 -122.24016 2030 ft 147 kts 296°
2026-05-08 01:19 37.56663 -122.25118 1866 ft 138 kts 296°
2026-05-08 01:20 37.57109 -122.26177 1680 ft 134 kts 296°
2026-05-08 01:20 37.57546 -122.27215 1479 ft 135 kts 297°
2026-05-08 01:20 37.57982 -122.28251 1321 ft 134 kts 296°
2026-05-08 01:20 37.58406 -122.29258 1176 ft 130 kts 296°
2026-05-08 01:21 37.58827 -122.30258 1002 ft 128 kts 297°
2026-05-08 01:21 37.59249 -122.31264 818 ft 130 kts 296°
2026-05-08 01:21 37.59665 -122.32245 720 ft 125 kts 296°
2026-05-08 01:21 37.60074 -122.33218 516 ft 126 kts 296°
2026-05-08 01:22 37.60476 -122.34177 348 ft 122 kts 294°
2026-05-08 01:22 37.60872 -122.35118 207 ft 121 kts 293°
2026-05-08 01:22 37.61267 -122.36066 58 ft 122 kts 294°
2026-05-08 01:22 37.61644 -122.36972 25 ft 104 kts 297°
2026-05-08 01:23 37.61905 -122.37585 19 ft 54 kts 298°
2026-05-08 01:23 37.61989 -122.37785 24 ft 12 kts 294°
2026-05-08 01:23 37.61997 -122.37879 24 ft 10 kts 249°
2026-05-08 01:23 37.61949 -122.37955 23 ft 13 kts 226°
2026-05-08 01:24 37.61863 -122.37990 22 ft 14 kts 169°
2026-05-08 01:24 37.61770 -122.37949 19 ft 15 kts 170°
2026-05-08 01:24 37.61668 -122.37965 16 ft 16 kts 202°
2026-05-08 01:24 37.61560 -122.38033 14 ft 17 kts 206°
2026-05-08 01:25 37.61451 -122.38106 15 ft 18 kts 208°
2026-05-08 01:25 37.61350 -122.38173 15 ft 17 kts 207°
2026-05-08 01:25 37.61254 -122.38237 17 ft 15 kts 208°
2026-05-08 01:25 37.61167 -122.38294 19 ft 14 kts 207°
2026-05-08 01:26 37.61076 -122.38355 18 ft 16 kts 208°
2026-05-08 01:26 37.60988 -122.38427 22 ft 14 kts 216°
2026-05-08 01:26 37.60910 -122.38489 20 ft 10 kts 209°
2026-05-08 01:26 37.60891 -122.38576 20 ft 12 kts 294°
2026-05-08 01:27 37.60934 -122.38667 17 ft 10 kts 316°
2026-05-08 01:27 37.60990 -122.38670 18 ft 5 kts 21°
2026-05-08 01:27 37.61010 -122.38656 20 ft 4 kts 28°
2026-05-08 01:27 37.61022 -122.38648 18 ft 1 kts 28°
2026-05-08 01:28 37.61025 -122.38647 20 ft 0 kts 28°